Preview of NWS' New Version of Forecast
This preview is not operational and should not be used for support decisions.

Regional Weather Roundup (RWR)

Issued by National Weather Service (NWS)

                            
000
ASUS46 KPQR 240110
RWROR 

OREGON REGIONAL WEATHER ROUNDUP
NATIONAL WEATHER SERVICE PORTLAND OR
600 PM PDT SUN JUN 23 2019

NOTE: "FAIR" INDICATES FEW OR NO CLOUDS BELOW 12,000 FEET WITH
NO SIGNIFICANT WEATHER AND/OR OBSTRUCTIONS TO VISIBILITY.

ORZ001>013-240200-
NORTHWEST OREGON

  
CITY           SKY/WX    TMP DP  RH WIND       PRES   REMARKS
ASTORIA        PTSUNNY   59  48  67 W8        30.21F                  
TILLAMOOK      MOSUNNY   63  50  63 W15       30.22F                  
NEWPORT        SUNNY     59  52  77 N12G18    30.24S                  
PORTLAND       PTSUNNY   70  48  45 NW10      30.15F                  
VANCOUVER WA   MOSUNNY   68  48  48 NW6       30.15F                  
SCAPPOOSE      PTSUNNY   69  49  48 NW8       30.15F                  
HILLSBORO      PTSUNNY   67  47  48 NW5       30.15F                  
AURORA         CLOUDY    70  48  45 NE6       30.15F                  
MCMINNVILLE    CLOUDY    68  47  46 CALM      30.14F                  
SALEM          MOSUNNY   70  47  43 NW12      30.13F                  
CORVALLIS      SUNNY     71  48  43 NW15      30.13F                  
EUGENE         PTSUNNY   76  49  38 N12       30.11F                  
$$

ORZ021-028-240200-
SOUTHWEST OREGON

  
CITY           SKY/WX    TMP DP  RH WIND       PRES   REMARKS
NORTH BEND     SUNNY     61  51  70 N22G29    30.19F                  
BROOKINGS      SUNNY     74  51  44 NW14G25   30.02F                  
ROSEBURG       SUNNY     81  45  28 NE9G20    30.08F                  
SEXTON SUMMIT  SUNNY     69  41  36 VRB6G16   30.16F                  
GRANTS PASS    FAIR      81  37  21 N9        30.08F                  
MEDFORD        SUNNY     82  36  19 NW13      30.04S                  
$$

ORZ014>016-041-240200-
COLUMBIA GORGE

  
CITY           SKY/WX    TMP DP  RH WIND       PRES   REMARKS
TROUTDALE      PTSUNNY   69  48  47 CALM      30.15F                  
HOOD RIVER     MOSUNNY   68  43  40 NW5       30.11F                  
THE DALLES     SUNNY     70  43  37 W21G29    30.07S                  
$$

ORZ029>031-041-044-049-050-061>064-502-503-505>511-240200-
EASTERN OREGON

  
CITY           SKY/WX    TMP DP  RH WIND       PRES   REMARKS
MADRAS         SUNNY     68  41  37 W20       30.08S                  
REDMOND        SUNNY     71  37  28 W15G22    30.07S                  
BEND           SUNNY     72  37  28 N14G24    30.07S                  
PRINEVILLE     PTSUNNY   70  37  30 NW14G23   30.07S                  
KLAMATH FALLS  MOSUNNY   75  35  23 NW16      30.09S                  
LAKEVIEW       SUNNY     76  33  21 W8        30.07F                  
HERMISTON      SUNNY     75  44  33 W20G28    29.94F                  
PENDLETON      MOSUNNY   75  40  28 W16G28    29.97S                  
JOHN DAY       SUNNY     71  35  27 W20G25    30.04S                  
MEACHAM        FAIR      62  38  40 VRB5      30.05S                  
LA GRANDE      CLOUDY    66  42  41 VRB3      30.02F                  
BAKER CITY     SUNNY     67  42  40 N13       30.02F                  
BURNS          SUNNY     73  32  22 W14G24    30.04F                  
ROME             N/A     80  25  13 NW10      29.99F                  
ONTARIO        SUNNY     79  39  23 N13G18    29.94F                  
$$